Location: Miles
(41.4492°N, 81.6087°W)
Time: 20:24:59
(UTC+00:00)

Vanguard 2 Rocket - Pass Details

Date: 28 September 2024
Orbit: 553 x 3298 km, 32.9° (Epoch: 11 October)

Event Time Altitude Azimuth Distance (km) Brightness Sun altitude
Rises 06:20:02 0° 262° (W) 3,507 - -48.3°
Reaches altitude 10° 06:22:14 10° 255° (WSW) 2,801 - -48.1°
Maximum altitude 06:28:45 44° 185° (S) 1,891 - -47.6°
Exits shadow 06:37:51 15° 122° (ESE) 4,118 10.1 -46.8°
Drops below altitude 10° 06:39:53 10° 119° (ESE) 4,729 10.5 -46.6°
Sets 06:44:48 0° 114° (ESE) 6,182 11.2 -46.1°
